owner,sensor,date,latitude,longitude,vertical_datum,sea_water_temperature,qcFlag
Shell,ioos:station:wmo:42877:1,2022-05-06T21:56:00Z,26.1540,-94.7874,3.4,25.8,11111222
Shell,ioos:station:wmo:42877:1,2022-05-06T22:06:00Z,26.1540,-94.7874,3.7,25.8,11111222
Shell,ioos:station:wmo:42877:1,2022-05-06T22:16:00Z,26.1540,-94.7874,3.9,25.8,11111222
Shell,ioos:station:wmo:42877:1,2022-05-06T22:26:00Z,26.1540,-94.7874,4.1,25.8,11111222
Shell,ioos:station:wmo:42877:1,2022-05-06T22:36:00Z,26.1540,-94.7874,4.3,25.8,11111222
Shell,ioos:station:wmo:42877:1,2022-05-06T22:46:00Z,26.1540,-94.7874,4.6,25.7,11111222
Shell,ioos:station:wmo:42877:1,2022-05-06T22:57:00Z,26.1540,-94.7874,4.9,25.7,11111222
Shell,ioos:station:wmo:42877:1,2022-05-06T23:07:00Z,26.1540,-94.7874,5.1,25.7,11111222
Shell,ioos:station:wmo:42877:1,2022-05-06T23:17:00Z,26.1540,-94.7874,5.2,25.7,11111222
Shell,ioos:station:wmo:42877:1,2022-05-06T23:27:00Z,26.1540,-94.7874,5.1,25.7,11111222
Shell,ioos:station:wmo:42877:1,2022-05-06T23:37:00Z,26.1540,-94.7874,5.0,25.7,11111222
Shell,ioos:station:wmo:42877:1,2022-05-06T23:47:00Z,26.1540,-94.7874,4.9,25.7,11111222
Shell,ioos:station:wmo:42877:1,2022-05-06T23:57:00Z,26.1540,-94.7874,5.0,25.7,11111222
Shell,ioos:station:wmo:42877:1,2022-05-07T00:07:00Z,26.1540,-94.7874,5.1,25.7,11111222
Shell,ioos:station:wmo:42877:1,2022-05-07T00:17:00Z,26.1540,-94.7874,5.5,25.6,11111222
Shell,ioos:station:wmo:42877:1,2022-05-07T00:27:00Z,26.1540,-94.7874,5.9,25.5,11111222
Shell,ioos:station:wmo:42877:1,2022-05-07T00:37:00Z,26.1540,-94.7874,5.8,25.4,11111222
Shell,ioos:station:wmo:42877:1,2022-05-07T00:47:00Z,26.1540,-94.7874,5.6,25.4,11111222
Shell,ioos:station:wmo:42877:1,2022-05-07T00:57:00Z,26.1540,-94.7874,5.6,25.4,11111222
Shell,ioos:station:wmo:42877:1,2022-05-07T01:07:00Z,26.1540,-94.7874,6.2,25.4,11111222
Shell,ioos:station:wmo:42877:1,2022-05-07T01:17:00Z,26.1540,-94.7874,6.4,25.4,11111222
Shell,ioos:station:wmo:42877:1,2022-05-07T01:27:00Z,26.1540,-94.7874,6.5,25.4,11111222
Shell,ioos:station:wmo:42877:1,2022-05-07T01:37:00Z,26.1540,-94.7874,6.7,25.5,11111222
Shell,ioos:station:wmo:42877:1,2022-05-07T01:47:00Z,26.1540,-94.7874,6.7,25.5,11111222
Shell,ioos:station:wmo:42877:1,2022-05-07T01:57:00Z,26.1540,-94.7874,7.1,25.5,11111222
Shell,ioos:station:wmo:42877:1,2022-05-07T02:07:00Z,26.1540,-94.7874,6.9,25.5,11111222
Shell,ioos:station:wmo:42877:1,2022-05-07T02:17:00Z,26.1540,-94.7874,6.9,25.5,11111222
Shell,ioos:station:wmo:42877:1,2022-05-07T02:27:00Z,26.1540,-94.7874,7.0,25.5,11111222
Shell,ioos:station:wmo:42877:1,2022-05-07T02:37:00Z,26.1540,-94.7874,7.3,25.5,11111222
Shell,ioos:station:wmo:42877:1,2022-05-07T02:47:00Z,26.1540,-94.7874,7.4,25.5,11111222
Shell,ioos:station:wmo:42877:1,2022-05-07T02:57:00Z,26.1540,-94.7874,8.0,25.5,11111222
Shell,ioos:station:wmo:42877:1,2022-05-07T03:07:00Z,26.1540,-94.7874,7.9,25.4,11111222
Shell,ioos:station:wmo:42877:1,2022-05-07T03:17:00Z,26.1540,-94.7874,8.1,25.4,11111222
Shell,ioos:station:wmo:42877:1,2022-05-07T03:27:00Z,26.1540,-94.7874,8.2,25.5,11111222
Shell,ioos:station:wmo:42877:1,2022-05-07T03:37:00Z,26.1540,-94.7874,8.5,25.5,11111222
Shell,ioos:station:wmo:42877:1,2022-05-07T03:47:00Z,26.1540,-94.7874,8.5,25.5,11111222
Shell,ioos:station:wmo:42877:1,2022-05-07T03:57:00Z,26.1540,-94.7874,8.4,25.5,11111222
Shell,ioos:station:wmo:42877:1,2022-05-07T04:07:00Z,26.1540,-94.7874,8.5,25.6,11111222
Shell,ioos:station:wmo:42877:1,2022-05-07T04:17:00Z,26.1540,-94.7874,9.2,25.6,11111222
Shell,ioos:station:wmo:42877:1,2022-05-07T04:27:00Z,26.1540,-94.7874,9.1,25.6,11111222
Shell,ioos:station:wmo:42877:1,2022-05-07T04:37:00Z,26.1540,-94.7874,9.2,25.5,11111222
Shell,ioos:station:wmo:42877:1,2022-05-07T04:47:00Z,26.1540,-94.7874,9.0,25.5,11111222
Shell,ioos:station:wmo:42877:1,2022-05-07T04:57:00Z,26.1540,-94.7874,9.4,25.5,11111222
Shell,ioos:station:wmo:42877:1,2022-05-07T05:07:00Z,26.1540,-94.7874,9.8,25.4,11111222
Shell,ioos:station:wmo:42877:1,2022-05-07T05:17:00Z,26.1540,-94.7874,10.3,25.4,11111222
Shell,ioos:station:wmo:42877:1,2022-05-07T05:27:00Z,26.1540,-94.7874,10.2,25.4,11111222
Shell,ioos:station:wmo:42877:1,2022-05-07T05:37:00Z,26.1540,-94.7874,10.1,25.3,11111222
Shell,ioos:station:wmo:42877:1,2022-05-07T05:47:00Z,26.1540,-94.7874,9.9,25.4,11111222
Shell,ioos:station:wmo:42877:1,2022-05-07T05:57:00Z,26.1540,-94.7874,10.4,25.4,11111222
Shell,ioos:station:wmo:42877:1,2022-05-07T06:07:00Z,26.1540,-94.7874,10.2,25.4,11111222
Shell,ioos:station:wmo:42877:1,2022-05-07T06:18:00Z,26.1540,-94.7874,10.1,25.5,11111222
Shell,ioos:station:wmo:42877:1,2022-05-07T06:28:00Z,26.1540,-94.7874,10.1,25.4,11111222
Shell,ioos:station:wmo:42877:1,2022-05-07T06:38:00Z,26.1540,-94.7874,10.1,25.5,11111222
Shell,ioos:station:wmo:42877:1,2022-05-07T06:48:00Z,26.1540,-94.7874,10.1,25.5,11111222
Shell,ioos:station:wmo:42877:1,2022-05-07T06:58:00Z,26.1540,-94.7874,10.1,25.5,11111222
Shell,ioos:station:wmo:42877:1,2022-05-07T07:08:00Z,26.1540,-94.7874,10.1,25.5,11111222
Shell,ioos:station:wmo:42877:1,2022-05-07T07:18:00Z,26.1540,-94.7874,10.1,25.4,11111222
Shell,ioos:station:wmo:42877:1,2022-05-07T07:28:00Z,26.1540,-94.7874,10.1,25.4,11111222
Shell,ioos:station:wmo:42877:1,2022-05-07T07:38:00Z,26.1540,-94.7874,10.1,25.4,11111222
Shell,ioos:station:wmo:42877:1,2022-05-07T07:48:00Z,26.1540,-94.7874,10.1,25.4,11111222
Shell,ioos:station:wmo:42877:1,2022-05-07T07:58:00Z,26.1540,-94.7874,10.1,25.5,11111222
Shell,ioos:station:wmo:42877:1,2022-05-07T08:08:00Z,26.1540,-94.7874,10.1,25.4,11111222
Shell,ioos:station:wmo:42877:1,2022-05-07T08:18:00Z,26.1540,-94.7874,10.1,25.5,11111222
Shell,ioos:station:wmo:42877:1,2022-05-07T08:28:00Z,26.1540,-94.7874,10.1,25.5,11111222
Shell,ioos:station:wmo:42877:1,2022-05-07T08:38:00Z,26.1540,-94.7874,10.1,25.5,11111222
Shell,ioos:station:wmo:42877:1,2022-05-07T08:48:00Z,26.1540,-94.7874,10.1,25.5,11111222
Shell,ioos:station:wmo:42877:1,2022-05-07T08:58:00Z,26.1540,-94.7874,10.1,25.5,11111222
Shell,ioos:station:wmo:42877:1,2022-05-07T09:08:00Z,26.1540,-94.7874,10.1,25.5,11111222
Shell,ioos:station:wmo:42877:1,2022-05-07T09:18:00Z,26.1540,-94.7874,10.1,25.5,11111222
Shell,ioos:station:wmo:42877:1,2022-05-07T09:28:00Z,26.1540,-94.7874,10.1,25.5,11111222
Shell,ioos:station:wmo:42877:1,2022-05-07T09:38:00Z,26.1540,-94.7874,10.1,25.5,11111222
Shell,ioos:station:wmo:42877:1,2022-05-07T09:48:00Z,26.1540,-94.7874,10.1,25.5,11111222
Shell,ioos:station:wmo:42877:1,2022-05-07T09:58:00Z,26.1540,-94.7874,10.1,25.5,11111222
Shell,ioos:station:wmo:42877:1,2022-05-07T10:08:00Z,26.1540,-94.7874,10.1,25.5,11111222
Shell,ioos:station:wmo:42877:1,2022-05-07T10:18:00Z,26.1540,-94.7874,10.1,25.5,11111222
Shell,ioos:station:wmo:42877:1,2022-05-07T10:28:00Z,26.1540,-94.7874,10.1,25.5,11111222
Shell,ioos:station:wmo:42877:1,2022-05-07T10:38:00Z,26.1540,-94.7874,10.1,25.5,11111222
Shell,ioos:station:wmo:42877:1,2022-05-07T10:48:00Z,26.1540,-94.7874,10.1,25.5,11111222
Shell,ioos:station:wmo:42877:1,2022-05-07T10:58:00Z,26.1540,-94.7874,10.1,25.5,11111222
Shell,ioos:station:wmo:42877:1,2022-05-07T11:08:00Z,26.1540,-94.7874,10.1,25.5,11111222
Shell,ioos:station:wmo:42877:1,2022-05-07T11:18:00Z,26.1540,-94.7874,10.1,25.5,11111222
Shell,ioos:station:wmo:42877:1,2022-05-07T11:28:00Z,26.1540,-94.7874,10.1,25.5,11111222
Shell,ioos:station:wmo:42877:1,2022-05-07T11:38:00Z,26.1540,-94.7874,10.1,25.5,11111222
Shell,ioos:station:wmo:42877:1,2022-05-07T11:48:00Z,26.1540,-94.7874,10.1,25.5,11111222
Shell,ioos:station:wmo:42877:1,2022-05-07T11:58:00Z,26.1540,-94.7874,10.1,25.5,11111222
Shell,ioos:station:wmo:42877:1,2022-05-07T12:08:00Z,26.1540,-94.7874,10.1,25.5,11111222
Shell,ioos:station:wmo:42877:1,2022-05-07T12:18:00Z,26.1540,-94.7874,10.1,25.5,11111222
Shell,ioos:station:wmo:42877:1,2022-05-07T12:28:00Z,26.1540,-94.7874,10.1,25.5,11111222
Shell,ioos:station:wmo:42877:1,2022-05-07T12:38:00Z,26.1540,-94.7874,10.1,25.5,11111222
Shell,ioos:station:wmo:42877:1,2022-05-07T12:48:00Z,26.1540,-94.7874,10.1,25.6,11111222
Shell,ioos:station:wmo:42877:1,2022-05-07T12:58:00Z,26.1540,-94.7874,10.1,25.6,11111222
Shell,ioos:station:wmo:42877:1,2022-05-07T13:08:00Z,26.1540,-94.7874,10.1,25.6,11111222
Shell,ioos:station:wmo:42877:1,2022-05-07T13:18:00Z,26.1540,-94.7874,10.3,25.6,11111222
Shell,ioos:station:wmo:42877:1,2022-05-07T13:28:00Z,26.1540,-94.7874,10.1,25.6,11111222
Shell,ioos:station:wmo:42877:1,2022-05-07T13:39:00Z,26.1540,-94.7874,9.9,25.6,11111222
Shell,ioos:station:wmo:42877:1,2022-05-07T13:49:00Z,26.1540,-94.7874,10.0,25.6,11111222
Shell,ioos:station:wmo:42877:1,2022-05-07T13:59:00Z,26.1540,-94.7874,10.0,25.6,11111222
Shell,ioos:station:wmo:42877:1,2022-05-07T14:09:00Z,26.1540,-94.7874,10.1,25.6,11111222
Shell,ioos:station:wmo:42877:1,2022-05-07T14:19:00Z,26.1540,-94.7874,9.9,25.6,11111222
Shell,ioos:station:wmo:42877:1,2022-05-07T14:29:00Z,26.1540,-94.7874,10.1,25.6,11111222
Shell,ioos:station:wmo:42877:1,2022-05-07T14:39:00Z,26.1540,-94.7874,10.1,25.6,11111222
Shell,ioos:station:wmo:42877:1,2022-05-07T14:49:00Z,26.1540,-94.7874,10.1,25.6,11111222
Shell,ioos:station:wmo:42877:1,2022-05-07T14:59:00Z,26.1540,-94.7874,10.2,25.6,11111222
Shell,ioos:station:wmo:42877:1,2022-05-07T15:09:00Z,26.1540,-94.7874,10.2,25.6,11111222
Shell,ioos:station:wmo:42877:1,2022-05-07T15:19:00Z,26.1540,-94.7874,10.2,25.6,11111222
Shell,ioos:station:wmo:42877:1,2022-05-07T15:29:00Z,26.1540,-94.7874,10.2,25.6,11111222
Shell,ioos:station:wmo:42877:1,2022-05-07T15:39:00Z,26.1540,-94.7874,10.2,25.6,11111222
Shell,ioos:station:wmo:42877:1,2022-05-07T15:49:00Z,26.1540,-94.7874,10.0,25.6,11111222
Shell,ioos:station:wmo:42877:1,2022-05-07T15:59:00Z,26.1540,-94.7874,10.0,25.7,11111222
Shell,ioos:station:wmo:42877:1,2022-05-07T16:09:00Z,26.1540,-94.7874,10.0,25.6,11111222
Shell,ioos:station:wmo:42877:1,2022-05-07T16:19:00Z,26.1540,-94.7874,10.0,25.7,11111222
Shell,ioos:station:wmo:42877:1,2022-05-07T16:29:00Z,26.1540,-94.7874,10.1,25.7,11111222
Shell,ioos:station:wmo:42877:1,2022-05-07T16:39:00Z,26.1540,-94.7874,10.1,25.6,11111222
Shell,ioos:station:wmo:42877:1,2022-05-07T16:49:00Z,26.1540,-94.7874,10.0,25.7,11111222
Shell,ioos:station:wmo:42877:1,2022-05-07T16:59:00Z,26.1540,-94.7874,10.0,25.7,11111222
Shell,ioos:station:wmo:42877:1,2022-05-07T17:09:00Z,26.1540,-94.7874,10.0,25.7,11111222
Shell,ioos:station:wmo:42877:1,2022-05-07T17:19:00Z,26.1540,-94.7874,10.0,25.7,11111222
Shell,ioos:station:wmo:42877:1,2022-05-07T17:29:00Z,26.1540,-94.7874,10.0,25.7,11111222
Shell,ioos:station:wmo:42877:1,2022-05-07T17:39:00Z,26.1540,-94.7874,10.0,25.7,11111222
Shell,ioos:station:wmo:42877:1,2022-05-07T17:49:00Z,26.1540,-94.7874,10.0,25.7,11111222
Shell,ioos:station:wmo:42877:1,2022-05-07T17:59:00Z,26.1540,-94.7874,10.0,25.6,11111222
Shell,ioos:station:wmo:42877:1,2022-05-07T18:09:00Z,26.1540,-94.7874,10.1,25.6,11111222
Shell,ioos:station:wmo:42877:1,2022-05-07T18:19:00Z,26.1540,-94.7874,10.1,25.6,11111222
Shell,ioos:station:wmo:42877:1,2022-05-07T18:29:00Z,26.1540,-94.7874,10.1,25.7,11111222
Shell,ioos:station:wmo:42877:1,2022-05-07T18:39:00Z,26.1540,-94.7874,10.1,25.7,11111222
Shell,ioos:station:wmo:42877:1,2022-05-07T18:49:00Z,26.1540,-94.7874,10.3,25.7,11111222
Shell,ioos:station:wmo:42877:1,2022-05-07T18:59:00Z,26.1540,-94.7874,10.2,25.6,11111222
Shell,ioos:station:wmo:42877:1,2022-05-07T19:09:00Z,26.1540,-94.7874,9.9,25.6,11111222
Shell,ioos:station:wmo:42877:1,2022-05-07T19:19:00Z,26.1540,-94.7874,9.5,25.6,11111222
Shell,ioos:station:wmo:42877:1,2022-05-07T19:29:00Z,26.1540,-94.7874,9.7,25.6,11111222
Shell,ioos:station:wmo:42877:1,2022-05-07T19:39:00Z,26.1540,-94.7874,9.9,25.6,11111222
Shell,ioos:station:wmo:42877:1,2022-05-07T19:49:00Z,26.1540,-94.7874,9.8,25.6,11111222
Shell,ioos:station:wmo:42877:1,2022-05-07T19:59:00Z,26.1540,-94.7874,9.5,25.6,11111222
Shell,ioos:station:wmo:42877:1,2022-05-07T20:09:00Z,26.1540,-94.7874,9.3,25.6,11111222
Shell,ioos:station:wmo:42877:1,2022-05-07T20:19:00Z,26.1540,-94.7874,9.3,25.6,11111222
Shell,ioos:station:wmo:42877:1,2022-05-07T20:29:00Z,26.1540,-94.7874,9.5,25.6,11111222
Shell,ioos:station:wmo:42877:1,2022-05-07T20:39:00Z,26.1540,-94.7874,9.5,25.6,11111222
Shell,ioos:station:wmo:42877:1,2022-05-07T20:50:00Z,26.1540,-94.7874,9.4,25.6,11111222
Shell,ioos:station:wmo:42877:1,2022-05-07T21:00:00Z,26.1540,-94.7874,9.5,25.6,11111222
Shell,ioos:station:wmo:42877:1,2022-05-07T21:10:00Z,26.1540,-94.7874,9.6,25.6,11111222
Shell,ioos:station:wmo:42877:1,2022-05-07T21:20:00Z,26.1540,-94.7874,9.6,25.6,11111222
Shell,ioos:station:wmo:42877:1,2022-05-07T21:30:00Z,26.1540,-94.7874,9.8,25.6,11111222
Shell,ioos:station:wmo:42877:1,2022-05-07T21:40:00Z,26.1540,-94.7874,9.9,25.5,11111222
Shell,ioos:station:wmo:42877:1,2022-05-07T21:50:00Z,26.1540,-94.7874,10.0,25.4,11111222
Shell,ioos:station:wmo:42877:1,2022-05-07T22:00:00Z,26.1540,-94.7874,10.1,25.4,11111222
Shell,ioos:station:wmo:42877:1,2022-05-07T22:10:00Z,26.1540,-94.7874,9.7,25.4,11111222
Shell,ioos:station:wmo:42877:1,2022-05-07T22:20:00Z,26.1540,-94.7874,9.6,25.4,11111222
Shell,ioos:station:wmo:42877:1,2022-05-07T22:30:00Z,26.1540,-94.7874,9.6,25.4,11111222
Shell,ioos:station:wmo:42877:1,2022-05-07T22:40:00Z,26.1540,-94.7874,9.6,25.4,11111222
Shell,ioos:station:wmo:42877:1,2022-05-07T22:50:00Z,26.1540,-94.7874,9.6,25.4,11111222
Shell,ioos:station:wmo:42877:1,2022-05-07T23:00:00Z,26.1540,-94.7874,9.6,25.3,11111222
Shell,ioos:station:wmo:42877:1,2022-05-07T23:10:00Z,26.1540,-94.7874,9.7,25.3,11111222
Shell,ioos:station:wmo:42877:1,2022-05-07T23:20:00Z,26.1540,-94.7874,9.7,25.3,11111222
Shell,ioos:station:wmo:42877:1,2022-05-07T23:30:00Z,26.1540,-94.7874,9.7,25.3,11111222
Shell,ioos:station:wmo:42877:1,2022-05-07T23:40:00Z,26.1540,-94.7874,9.7,25.3,11111222
Shell,ioos:station:wmo:42877:1,2022-05-07T23:50:00Z,26.1540,-94.7874,9.7,25.2,11111222
Shell,ioos:station:wmo:42877:1,2022-05-08T00:00:00Z,26.1540,-94.7874,9.7,25.1,11111222
Shell,ioos:station:wmo:42877:1,2022-05-08T00:10:00Z,26.1540,-94.7874,9.7,25.2,11111222
Shell,ioos:station:wmo:42877:1,2022-05-08T00:20:00Z,26.1540,-94.7874,9.7,25.3,11111222
Shell,ioos:station:wmo:42877:1,2022-05-08T00:30:00Z,26.1540,-94.7874,9.7,25.4,11111222
Shell,ioos:station:wmo:42877:1,2022-05-08T00:40:00Z,26.1540,-94.7874,9.7,25.4,11111222
Shell,ioos:station:wmo:42877:1,2022-05-08T00:50:00Z,26.1540,-94.7874,9.7,25.6,11111222
Shell,ioos:station:wmo:42877:1,2022-05-08T01:00:00Z,26.1540,-94.7874,9.7,25.6,11111222
Shell,ioos:station:wmo:42877:1,2022-05-08T01:10:00Z,26.1540,-94.7874,9.8,25.6,11111222
Shell,ioos:station:wmo:42877:1,2022-05-08T01:20:00Z,26.1540,-94.7874,9.8,25.6,11111222
Shell,ioos:station:wmo:42877:1,2022-05-08T01:30:00Z,26.1540,-94.7874,9.8,25.8,11111222
Shell,ioos:station:wmo:42877:1,2022-05-08T01:40:00Z,26.1540,-94.7874,9.8,25.8,11111222
Shell,ioos:station:wmo:42877:1,2022-05-08T01:50:00Z,26.1540,-94.7874,9.8,25.8,11111222
Shell,ioos:station:wmo:42877:1,2022-05-08T02:00:00Z,26.1540,-94.7874,9.8,25.8,11111222
Shell,ioos:station:wmo:42877:1,2022-05-08T02:10:00Z,26.1540,-94.7874,9.8,25.8,11111222
Shell,ioos:station:wmo:42877:1,2022-05-08T02:20:00Z,26.1540,-94.7874,9.7,25.8,11111222
Shell,ioos:station:wmo:42877:1,2022-05-08T02:30:00Z,26.1540,-94.7874,9.8,25.8,11111222
Shell,ioos:station:wmo:42877:1,2022-05-08T02:40:00Z,26.1540,-94.7874,9.9,25.8,11111222
Shell,ioos:station:wmo:42877:1,2022-05-08T02:50:00Z,26.1540,-94.7874,9.9,25.8,11111222
Shell,ioos:station:wmo:42877:1,2022-05-08T03:00:00Z,26.1540,-94.7874,9.8,25.8,11111222
Shell,ioos:station:wmo:42877:1,2022-05-08T03:10:00Z,26.1540,-94.7874,9.8,25.8,11111222
Shell,ioos:station:wmo:42877:1,2022-05-08T03:20:00Z,26.1540,-94.7874,9.8,25.8,11111222
Shell,ioos:station:wmo:42877:1,2022-05-08T03:30:00Z,26.1540,-94.7874,9.7,25.8,11111222
Shell,ioos:station:wmo:42877:1,2022-05-08T03:40:00Z,26.1540,-94.7874,9.8,25.7,11111222
Shell,ioos:station:wmo:42877:1,2022-05-08T03:50:00Z,26.1540,-94.7874,9.8,25.8,11111222
Shell,ioos:station:wmo:42877:1,2022-05-08T04:00:00Z,26.1540,-94.7874,9.7,25.8,11111222
Shell,ioos:station:wmo:42877:1,2022-05-08T04:11:00Z,26.1540,-94.7874,9.7,25.8,11111222
Shell,ioos:station:wmo:42877:1,2022-05-08T04:21:00Z,26.1540,-94.7874,9.7,25.8,11111222
Shell,ioos:station:wmo:42877:1,2022-05-08T04:31:00Z,26.1540,-94.7874,9.6,25.8,11111222
Shell,ioos:station:wmo:42877:1,2022-05-08T04:41:00Z,26.1540,-94.7874,9.7,25.8,11111222
Shell,ioos:station:wmo:42877:1,2022-05-08T04:51:00Z,26.1540,-94.7874,9.7,25.8,11111222
Shell,ioos:station:wmo:42877:1,2022-05-08T05:01:00Z,26.1540,-94.7874,9.7,25.7,11111222
Shell,ioos:station:wmo:42877:1,2022-05-08T05:11:00Z,26.1540,-94.7874,9.7,25.7,11111222
Shell,ioos:station:wmo:42877:1,2022-05-08T05:21:00Z,26.1540,-94.7874,9.7,25.8,11111222
Shell,ioos:station:wmo:42877:1,2022-05-08T05:31:00Z,26.1540,-94.7874,9.8,25.8,11111222
Shell,ioos:station:wmo:42877:1,2022-05-08T05:41:00Z,26.1540,-94.7874,9.9,25.8,11111222
Shell,ioos:station:wmo:42877:1,2022-05-08T05:51:00Z,26.1540,-94.7874,9.8,25.8,11111222
Shell,ioos:station:wmo:42877:1,2022-05-08T06:01:00Z,26.1540,-94.7874,9.8,25.8,11111222
Shell,ioos:station:wmo:42877:1,2022-05-08T06:11:00Z,26.1540,-94.7874,9.9,25.8,11111222
Shell,ioos:station:wmo:42877:1,2022-05-08T06:21:00Z,26.1540,-94.7874,9.9,25.9,11111222
Shell,ioos:station:wmo:42877:1,2022-05-08T06:31:00Z,26.1540,-94.7874,10.0,25.9,11111222
Shell,ioos:station:wmo:42877:1,2022-05-08T06:41:00Z,26.1540,-94.7874,10.0,25.8,11111222
Shell,ioos:station:wmo:42877:1,2022-05-08T06:51:00Z,26.1540,-94.7874,9.9,25.8,11111222
Shell,ioos:station:wmo:42877:1,2022-05-08T07:01:00Z,26.1540,-94.7874,9.9,25.8,11111222
Shell,ioos:station:wmo:42877:1,2022-05-08T07:11:00Z,26.1540,-94.7874,9.8,25.7,11111222
Shell,ioos:station:wmo:42877:1,2022-05-08T07:21:00Z,26.1540,-94.7874,9.9,25.8,11111222
Shell,ioos:station:wmo:42877:1,2022-05-08T07:31:00Z,26.1540,-94.7874,9.8,25.7,11111222
Shell,ioos:station:wmo:42877:1,2022-05-08T07:41:00Z,26.1540,-94.7874,9.9,25.8,11111222
Shell,ioos:station:wmo:42877:1,2022-05-08T07:51:00Z,26.1540,-94.7874,9.9,25.8,11111222
Shell,ioos:station:wmo:42877:1,2022-05-08T08:01:00Z,26.1540,-94.7874,9.9,25.9,11111222
Shell,ioos:station:wmo:42877:1,2022-05-08T08:11:00Z,26.1540,-94.7874,10.0,25.8,11111222
Shell,ioos:station:wmo:42877:1,2022-05-08T08:21:00Z,26.1540,-94.7874,10.0,25.8,11111222
Shell,ioos:station:wmo:42877:1,2022-05-08T08:31:00Z,26.1540,-94.7874,10.0,25.8,11111222
Shell,ioos:station:wmo:42877:1,2022-05-08T08:41:00Z,26.1540,-94.7874,10.0,25.7,11111222
Shell,ioos:station:wmo:42877:1,2022-05-08T08:51:00Z,26.1540,-94.7874,10.0,25.8,11111222
Shell,ioos:station:wmo:42877:1,2022-05-08T09:01:00Z,26.1540,-94.7874,9.9,25.9,11111222
Shell,ioos:station:wmo:42877:1,2022-05-08T09:11:00Z,26.1540,-94.7874,9.7,26.0,11111222
Shell,ioos:station:wmo:42877:1,2022-05-08T09:21:00Z,26.1540,-94.7874,9.7,26.0,11111222
Shell,ioos:station:wmo:42877:1,2022-05-08T09:31:00Z,26.1540,-94.7874,9.8,26.0,11111222
Shell,ioos:station:wmo:42877:1,2022-05-08T09:41:00Z,26.1540,-94.7874,9.8,26.1,11111222
Shell,ioos:station:wmo:42877:1,2022-05-08T09:51:00Z,26.1540,-94.7874,9.8,26.1,11111222
Shell,ioos:station:wmo:42877:1,2022-05-08T10:01:00Z,26.1540,-94.7874,9.7,25.9,11111222
Shell,ioos:station:wmo:42877:1,2022-05-08T10:11:00Z,26.1540,-94.7874,9.7,25.9,11111222
Shell,ioos:station:wmo:42877:1,2022-05-08T10:21:00Z,26.1540,-94.7874,9.7,25.8,11111222
Shell,ioos:station:wmo:42877:1,2022-05-08T10:31:00Z,26.1540,-94.7874,9.7,25.7,11111222
Shell,ioos:station:wmo:42877:1,2022-05-08T10:41:00Z,26.1540,-94.7874,9.7,25.7,11111222
Shell,ioos:station:wmo:42877:1,2022-05-08T10:51:00Z,26.1540,-94.7874,9.7,25.8,11111222
Shell,ioos:station:wmo:42877:1,2022-05-08T11:01:00Z,26.1540,-94.7874,9.7,25.7,11111222
Shell,ioos:station:wmo:42877:1,2022-05-08T11:11:00Z,26.1540,-94.7874,9.7,25.7,11111222
Shell,ioos:station:wmo:42877:1,2022-05-08T11:21:00Z,26.1540,-94.7874,9.7,25.7,11111222
Shell,ioos:station:wmo:42877:1,2022-05-08T11:32:00Z,26.1540,-94.7874,9.7,25.7,11111222
Shell,ioos:station:wmo:42877:1,2022-05-08T11:42:00Z,26.1540,-94.7874,9.7,25.7,11111222
Shell,ioos:station:wmo:42877:1,2022-05-08T11:52:00Z,26.1540,-94.7874,9.7,25.8,11111222
Shell,ioos:station:wmo:42877:1,2022-05-08T12:02:00Z,26.1540,-94.7874,9.8,25.8,11111222
Shell,ioos:station:wmo:42877:1,2022-05-08T12:12:00Z,26.1540,-94.7874,10.0,25.8,11111222
Shell,ioos:station:wmo:42877:1,2022-05-08T12:22:00Z,26.1540,-94.7874,9.9,25.8,11111222
Shell,ioos:station:wmo:42877:1,2022-05-08T12:32:00Z,26.1540,-94.7874,9.9,25.8,11111222
Shell,ioos:station:wmo:42877:1,2022-05-08T12:42:00Z,26.1540,-94.7874,9.9,25.8,11111222
Shell,ioos:station:wmo:42877:1,2022-05-08T12:52:00Z,26.1540,-94.7874,9.8,25.8,11111222
Shell,ioos:station:wmo:42877:1,2022-05-08T13:02:00Z,26.1540,-94.7874,9.7,25.8,11111222
Shell,ioos:station:wmo:42877:1,2022-05-08T13:12:00Z,26.1540,-94.7874,9.4,25.8,11111222
Shell,ioos:station:wmo:42877:1,2022-05-08T13:22:00Z,26.1540,-94.7874,9.5,25.7,11111222
Shell,ioos:station:wmo:42877:1,2022-05-08T13:32:00Z,26.1540,-94.7874,9.7,25.7,11111222
Shell,ioos:station:wmo:42877:1,2022-05-08T13:42:00Z,26.1540,-94.7874,9.7,25.8,11111222
Shell,ioos:station:wmo:42877:1,2022-05-08T13:52:00Z,26.1540,-94.7874,9.7,25.8,11111222
Shell,ioos:station:wmo:42877:1,2022-05-08T14:02:00Z,26.1540,-94.7874,9.7,25.7,11111222
Shell,ioos:station:wmo:42877:1,2022-05-08T14:12:00Z,26.1540,-94.7874,9.8,25.7,11111222
Shell,ioos:station:wmo:42877:1,2022-05-08T14:22:00Z,26.1540,-94.7874,9.8,25.7,11111222
Shell,ioos:station:wmo:42877:1,2022-05-08T14:32:00Z,26.1540,-94.7874,9.6,25.7,11111222
Shell,ioos:station:wmo:42877:1,2022-05-08T14:42:00Z,26.1540,-94.7874,9.7,25.7,11111222
Shell,ioos:station:wmo:42877:1,2022-05-08T14:52:00Z,26.1540,-94.7874,9.6,25.8,11111222
Shell,ioos:station:wmo:42877:1,2022-05-08T15:02:00Z,26.1540,-94.7874,9.6,25.8,11111222
Shell,ioos:station:wmo:42877:1,2022-05-08T15:12:00Z,26.1540,-94.7874,9.7,25.8,11111222
Shell,ioos:station:wmo:42877:1,2022-05-08T15:22:00Z,26.1540,-94.7874,9.7,25.8,11111222
Shell,ioos:station:wmo:42877:1,2022-05-08T15:32:00Z,26.1540,-94.7874,9.8,25.8,11111222
Shell,ioos:station:wmo:42877:1,2022-05-08T15:42:00Z,26.1540,-94.7874,9.9,25.8,11111222
Shell,ioos:station:wmo:42877:1,2022-05-08T15:52:00Z,26.1540,-94.7874,9.9,25.8,11111222
Shell,ioos:station:wmo:42877:1,2022-05-08T16:02:00Z,26.1540,-94.7874,9.8,25.8,11111222
Shell,ioos:station:wmo:42877:1,2022-05-08T16:12:00Z,26.1540,-94.7874,9.7,25.7,11111222
Shell,ioos:station:wmo:42877:1,2022-05-08T16:22:00Z,26.1540,-94.7874,9.7,25.8,11111222
Shell,ioos:station:wmo:42877:1,2022-05-08T16:32:00Z,26.1540,-94.7874,9.7,25.8,11111222
Shell,ioos:station:wmo:42877:1,2022-05-08T16:42:00Z,26.1540,-94.7874,9.7,25.8,11111222
Shell,ioos:station:wmo:42877:1,2022-05-08T16:52:00Z,26.1540,-94.7874,9.7,25.8,11111222
Shell,ioos:station:wmo:42877:1,2022-05-08T17:02:00Z,26.1540,-94.7874,9.7,25.8,11111222
Shell,ioos:station:wmo:42877:1,2022-05-08T17:12:00Z,26.1540,-94.7874,9.7,25.7,11111222
Shell,ioos:station:wmo:42877:1,2022-05-08T17:22:00Z,26.1540,-94.7874,9.7,25.7,11111222
Shell,ioos:station:wmo:42877:1,2022-05-08T17:32:00Z,26.1540,-94.7874,9.7,25.8,11111222
Shell,ioos:station:wmo:42877:1,2022-05-08T17:42:00Z,26.1540,-94.7874,9.8,25.7,11111222
Shell,ioos:station:wmo:42877:1,2022-05-08T17:52:00Z,26.1540,-94.7874,9.7,25.7,11111222
Shell,ioos:station:wmo:42877:1,2022-05-08T18:02:00Z,26.1540,-94.7874,9.8,25.7,11111222
Shell,ioos:station:wmo:42877:1,2022-05-08T18:12:00Z,26.1540,-94.7874,9.8,25.7,11111222
Shell,ioos:station:wmo:42877:1,2022-05-08T18:22:00Z,26.1540,-94.7874,9.8,25.7,11111222
Shell,ioos:station:wmo:42877:1,2022-05-08T18:32:00Z,26.1540,-94.7874,9.8,25.8,11111222
Shell,ioos:station:wmo:42877:1,2022-05-08T18:42:00Z,26.1540,-94.7874,9.8,25.8,11111222
Shell,ioos:station:wmo:42877:1,2022-05-08T18:53:00Z,26.1540,-94.7874,9.8,25.7,11111222